Location: Gaudeissart
(44.3833°N, 6.5000°E)
Time: 05:51:57
(UTC+00:00)

Daily predictions for brighter satellites

Satellite Brightness Start Highest point End
(mag) Time Altitude Azimuth Time Altitude Azimuth Time Altitude Azimuth
SL-16 R/B 4.4 00:12:20 25° NNE 00:12:20 25° NNE 00:15:23 10° N
Cosmos 2227 Rocket 4.1 01:22:55 10° NNW 01:25:13 24° N 01:25:13 24° N
Lacrosse 5 4.2 01:32:48 18° E 01:32:48 18° E 01:34:24 10° ENE
USA 234 4.1 01:26:54 10° E 01:33:01 45° NNE 01:37:43 17° NW
ADEOS II 3.6 01:35:20 10° NNE 01:38:27 34° NE 01:38:27 34° NE
IDEFIX/ARIANE 42P 4.2 01:48:54 10° NE 01:53:20 27° E 01:53:40 26° E
SL-16 R/B 4.2 01:57:26 21° NW 01:57:26 21° NW 01:59:24 10° NNW
ARIANE 5 R/B 3.7 01:57:42 10° NNE 02:01:51 38° ENE 02:01:51 38° ENE
CZ-2D R/B 3.7 01:59:34 10° N 02:02:04 26° NNW 02:02:04 26° NNW
ATLAS 5 CENTAUR R/B 3.8 02:07:56 21° N 02:07:56 21° N 02:10:03 10° NNE
Cosmos 2297 Rocket 4.4 02:09:51 10° NNW 02:10:32 14° NNW 02:10:32 14° NNW
Resurs 1-4 Rocket 3.8 02:13:37 10° N 02:15:58 23° NNW 02:15:58 23° NNW
Cosmos 2082 3.9 02:14:05 10° NNW 02:19:47 68° ENE 02:20:23 62° E
USA 306 4.4 02:26:37 34° ENE 02:26:37 34° ENE 02:29:08 10° ENE
X-37B 3.9 02:29:08 12° E 02:29:08 12° E 02:29:26 10° E
SJ 16-02 4.3 02:26:56 10° NNE 02:29:45 16° ENE 02:32:33 10° E
Meteor 1-25 Rocket 4.3 02:26:09 10° N 02:32:00 77° ENE 02:33:00 60° SE
Cosmos 1697 Rocket 2.6 02:32:33 82° ENE 02:32:33 82° ENE 02:38:00 10° NNE
ASTEX 1 4.0 02:30:41 10° NNE 02:35:37 55° E 02:36:23 49° SE
IRS-P3 4.3 02:30:49 10° N 02:35:28 64° NNW 02:35:28 64° NNW
H-2A R/B 4.0 02:32:32 10° SE 02:36:19 30° ENE 02:40:12 10° N
Cosmos 1980 Rocket 2.9 02:35:19 42° SE 02:36:32 50° ESE 02:41:59 10° NE
USA 267 3.3 02:34:35 10° NE 02:41:05 68° NNW 02:42:17 56° W
Cosmos 2263 Rocket 3.9 02:40:47 10° N 02:45:50 32° NE 02:50:52 10° ESE
ERS-1 4.4 02:40:43 10° NNE 02:45:42 79° NW 02:45:42 79° NW
SL-8 R/B 4.1 02:46:01 56° N 02:46:13 57° N 02:50:56 10° E
USA 307 3.3 02:52:25 62° NE 02:52:25 62° NE 02:56:00 10° NE
USA 308 3.2 02:55:23 65° NNE 02:55:23 65° NNE 02:59:06 10° NE
Cosmos 1821 Rocket 3.9 02:49:08 10° NNW 02:55:23 65° W 02:56:29 55° SW
Cosmos 1470 Rocket 4.2 02:52:13 10° N 02:55:25 46° NNW 02:55:25 46° NNW
Spot 4 Rocket 3.9 02:53:36 10° NNE 02:58:47 90° ESE 02:59:44 61° SSW
Landsat 5 4.2 02:59:48 10° SSE 03:04:14 58° ENE 03:08:40 10° N
Celestis-02/Orion 38 4.4 03:00:27 10° SSE 03:05:43 69° WSW 03:10:54 10° NNW
Cosmos 1782 3.0 03:10:11 61° NNW 03:10:11 61° NNW 03:13:42 10° N
ERBS 4.3 03:09:57 21° SE 03:10:15 21° SE 03:12:52 10° ENE
Cosmos 1934 Rocket 3.8 03:04:21 10° N 03:10:26 84° W 03:16:31 10° S
Cosmos 1777 Rocket 3.9 03:05:54 10° NNW 03:11:02 60° WSW 03:12:06 49° SSW
Cosmos 1238 Rocket 4.0 03:06:04 10° N 03:12:45 89° WSW 03:18:54 10° S
Lacrosse 5 2.0 03:12:00 52° WNW 03:12:47 59° NW 03:17:49 10° NE
ADEOS Rocket 4.2 03:08:17 10° SE 03:14:49 48° ENE 03:20:44 10° N
CZ-4B R/B 4.4 03:13:02 10° ESE 03:15:09 17° ENE 03:17:19 10° NNE
Cosmos 1515 Rocket 3.5 03:15:08 62° W 03:15:10 62° W 03:19:36 10° N
USA 234 3.1 03:09:17 10° SE 03:15:48 74° SW 03:22:21 10° NW
CZ-2C R/B 2.5 03:14:40 10° N 03:18:26 80° WNW 03:18:32 79° W
Nadezhda 3 Rocket 4.3 03:18:39 40° WSW 03:19:43 43° WNW 03:25:34 10° N
ADEOS II 3.5 03:15:48 10° NNW 03:19:23 22° NW 03:19:23 22° NW
Cosmos 546 4.4 03:20:30 82° WSW 03:20:36 84° SSW 03:24:26 10° ESE
USA 276 3.3 03:21:38 35° N 03:21:38 35° N 03:24:29 10° NE
Cosmos 972 Rocket 4.3 03:24:15 40° WNW 03:24:38 41° WNW 03:29:17 10° N
CSL-04 DEB 4.4 03:21:34 10° SSE 03:25:50 85° WSW 03:30:13 10° NNW
Cosmos 44 3.0 03:24:49 47° SSW 03:26:04 88° ESE 03:30:43 10° NE
Cosmos 1356 3.7 03:25:39 10° NNW 03:28:27 53° NW 03:28:27 53° NW
MSX 3.8 03:23:34 10° N 03:29:19 68° WNW 03:32:39 26° SSW
Cosmos 921 Rocket 3.1 03:27:48 27° S 03:29:57 70° ESE 03:34:07 10° NNE
Cosmos 2278 3.8 03:28:11 37° WSW 03:30:18 60° WNW 03:35:58 10° NNE
Timation 1 Rocket 4.3 03:24:36 10° NNW 03:30:32 64° WSW 03:36:27 10° SSE
IDEFIX/ARIANE 42P 3.0 03:28:05 10° N 03:33:03 42° WNW 03:34:28 35° WSW
Cosmos 1605 Rocket 4.0 03:26:49 10° N 03:33:15 86° W 03:39:39 10° S
Cosmos 2228 Rocket 2.9 03:31:11 30° SSW 03:33:18 78° W 03:37:44 10° N
CZ-3B R/B 3.4 03:32:05 22° NW 03:33:47 32° N 03:41:50 10° ENE
Cosmos 1933 Rocket 3.8 03:29:50 10° NNW 03:33:59 44° W 03:34:18 43° WSW
Cosmos 2369 4.4 03:36:41 30° W 03:38:24 37° NW 03:43:42 10° NNE
ARIANE 5 R/B 3.5 03:37:10 10° N 03:41:25 27° WNW 03:42:10 26° W
CZ-4C R/B 3.3 03:42:39 44° WSW 03:43:01 45° W 03:46:30 10° NNW
ALOS 3.8 03:43:56 10° NNE 03:48:15 36° E 03:52:32 10° SSE
IRIDIUM 106 4.2 03:43:56 10° N 03:49:11 83° W 03:54:24 10° S
Cosmos 1536 4.1 03:47:56 10° N 03:51:52 44° ENE 03:55:46 10° SSE
Cosmos 1869 Rocket 3.4 03:48:42 10° NNW 03:53:02 71° W 03:57:20 10° S
GENESIS II 4.3 03:51:47 23° SSW 03:54:15 83° ESE 03:58:19 10° NE
Meteor 1-4 Rocket 2.3 03:52:32 13° S 03:55:36 90° N 03:59:06 10° N
Cosmos 1484 Rocket 4.1 03:53:16 10° NNE 03:57:05 43° E 04:00:54 10° S
USA 305 3.9 03:58:51 21° WNW 04:01:04 35° NNW 04:05:00 10° NE
X-37B 0.6 04:01:25 28° W 04:02:55 80° N 04:06:06 10° E
USA 306 4.0 04:02:46 19° WNW 04:05:11 33° NNW 04:09:04 10° NE
Cosmos 1727 Rocket 4.0 03:59:31 10° SSW 04:05:52 79° W 04:12:14 10° N
Cosmos 1763 Rocket 3.7 04:00:36 10° SSW 04:05:54 79° ESE 04:11:14 10° NNE
Cosmos 389 Rocket 4.0 04:06:11 19° WNW 04:06:11 19° WNW 04:08:46 10° NNW
Meteor 1-31 Rocket 3.9 04:04:10 10° NNE 04:07:51 45° E 04:11:33 10° S
Cosmos 2100 Rocket 4.4 04:01:28 10° N 04:07:52 73° E 04:14:13 10° SSE
SJ 16-02 1.3 04:04:24 10° NNW 04:08:42 56° WSW 04:13:00 10° S
PSLV R/B 3.8 04:06:21 10° N 04:10:23 45° WNW 04:14:17 10° SW
Cosmos 2360 Rocket 3.8 04:05:27 10° S 04:10:35 37° ESE 04:15:44 10° NE
H-2A R/B 2.9 04:08:30 10° SSW 04:12:15 28° W 04:16:05 10° NW
ERS-2 2.6 04:09:41 10° S 04:13:07 38° W 04:16:34 10° NNW
Cosmos 1697 Rocket 4.3 04:14:18 13° W 04:17:04 19° NW 04:20:57 10° N
CZ-2C R/B 2.8 04:13:08 10° N 04:18:04 48° WNW 04:23:01 10° SW
NOSS 3-4 (A) 4.4 04:12:41 10° NNW 04:19:35 62° NE 04:27:14 10° SE
NOSS 3-4 (C) 4.5 04:12:47 10° NNW 04:19:42 61° NE 04:27:21 10° SE
Gbstr 26 Del rocket 4.4 04:12:06 10° WNW 04:20:12 90° NNE 04:27:14 10° ESE
Cosmos 1980 Rocket 3.2 04:17:08 15° WSW 04:20:47 29° NW 04:25:39 10° N
FALCON 9 DEB 4.4 04:18:16 10° SSW 04:21:27 37° SE 04:24:40 10° ENE
PAYLOAD A 4.4 04:17:13 10° N 04:21:33 37° WNW 04:25:50 10° SW
USA 267 4.3 04:17:43 10° NE 04:23:26 34° NNW 04:29:10 10° WNW
Cosmos 2322 Rocket 2.3 04:20:07 10° SSW 04:25:47 88° ESE 04:31:32 10° NNE
FENGYUN 3A 3.8 04:20:22 10° NNE 04:25:48 85° ESE 04:31:12 10° SSW
SJ-6F 4.5 04:23:17 10° N 04:27:19 57° WNW 04:31:20 10° SSW
NOSS 3-3 (A) 4.2 04:22:36 12° WSW 04:27:54 53° NW 04:34:22 10° NNE
NOSS 3-3 (C) 4.2 04:22:46 12° WSW 04:28:01 53° NW 04:34:26 10° NNE
Cosmos 990 Rocket 4.0 04:23:18 10° NNW 04:28:24 57° WSW 04:33:30 10° S
SL-8 R/B 3.7 04:24:08 10° WNW 04:28:52 64° SSW 04:33:35 10° SE
Cosmos 1459 Rocket 3.9 04:23:29 10° N 04:29:37 86° W 04:35:40 10° S
Cosmos 2263 Rocket 2.5 04:24:33 10° NW 04:29:52 43° WSW 04:35:11 10° S
Cosmos 1812 3.9 04:27:26 11° SW 04:30:26 24° WNW 04:33:38 10° NNW
Cosmos 468 Rocket 4.1 04:25:22 10° SW 04:30:35 58° WNW 04:35:49 10° NNE
USA 307 4.3 04:28:36 10° WNW 04:32:15 27° NNW 04:35:57 10° NE
SL-16 R/B 2.2 04:27:52 10° SW 04:33:31 68° WNW 04:39:11 10° NNE
COSMO-SKYMED 1 3.1 04:30:38 10° SSE 04:34:55 65° ENE 04:39:14 10° N
USA 308 4.3 04:31:42 10° WNW 04:35:22 27° NNW 04:39:02 10° NE
Cosmos 1844 Rocket 3.7 04:31:24 10° NNW 04:36:53 50° ENE 04:42:22 10° SE
SL-4 R/B 2.9 04:33:54 10° SW 04:38:26 59° SE 04:43:10 10° ENE
Cosmos 540 Rocket 3.7 04:34:00 10° SSW 04:39:09 80° ESE 04:44:22 10° NNE
Cosmos 44 Rocket 4.1 04:36:11 10° SSW 04:40:45 53° ESE 04:45:28 10° NE
ATLAS CENTAUR R/B 3.9 04:33:31 10° NW 04:41:54 38° NNE 04:45:34 10° E
Cosmos 1666 3.5 04:39:33 10° NNW 04:42:56 30° W 04:46:17 10° SSW
ATLAS 2AS CENTAUR R/B 3.2 04:36:12 10° NW 04:43:44 70° NE 04:50:37 10° SE
ERBS 2.9 04:43:06 10° WSW 04:46:18 41° NW 04:49:32 10° NE
CZ-4B R/B 2.3 04:44:38 10° SSW 04:47:15 24° W 04:49:56 10° NW
Cosmos 1544 4.1 04:45:23 10° N 04:48:55 50° E 04:52:23 10° SSE
